Weather History for EBFS - November, 2013

Change the Weather History Date:

Tuesday, November 5, 2013

  Actual Average Record
Temperature  
Mean Temperature 42 °F -  
Max Temperature 48 °F 42 °F - (-1)
Min Temperature 35 °F 36 °F - (-1)
Degree Days  
Heating Degree Days 24    
Moisture  
Dew Point 39 °F    
Average Humidity 91    
Maximum Humidity 100    
Minimum Humidity 74    
Precipitation  
Precipitation 0.16 in - - ()
Sea Level Pressure  
Sea Level Pressure 29.44 in    
Wind  
Wind Speed 11 mph ()    
Max Wind Speed 20 mph    
Max Gust Speed 28 mph    
Visibility 7.0 miles    
Events Rain    
Averages and records for this station are not official NWS values.
T = Trace of Precipitation, MM = Missing Value Source: Averaged Metar Reports

Daily Weather History Graph

Daily Weather History Graph

Search for Another Location

Airport or City:

Trip Planner

Search our weather history database for the weather conditions in past years. The results will help you decide how hot, cold, wet, or windy it might be!

Date:

Astronomy

Nov. 05, 2013 Rise Set
Actual Time 7:38 AM CET 5:10 PM CET
Civil Twilight 7:03 AM CET 5:45 PM CET
Nautical Twilight 6:25 AM CET 6:24 PM CET
Astronomical Twilight 5:47 AM CET 7:01 PM CET
Moon 9:45 AM CET (11/5) 6:47 PM CET (11/5)
Length of Visible Light 10h 41m
Length of Day
9h 32m
Waxing Crescent, 5% of the Moon is Illuminated
Nov 5
Waxing Crescent
Nov 10
First Quarter
Nov 17
Full
Nov 25
Last Quarter
Dec 3
New

Hourly Weather History & Observations

Time (CET) Temp. Windchill Dew Point Humidity Pressure Visibility Wind Dir Wind Speed Gust Speed Precip Events Conditions
12:25 AM 41.0 °F 35.2 °F 35.6 °F 81% 29.50 in 6.2 mi WSW 9.2 mph - N/A   Partly Cloudy
12:55 AM 39.2 °F 33.6 °F 35.6 °F 87% 29.53 in 6.2 mi WSW 8.1 mph - N/A   Partly Cloudy
1:00 AM 39 °F - 36 °F 85% 29.56 in 16 mi WSW 6.7 mph - -   Scattered Clouds
1:25 AM 39.2 °F 35.0 °F 35.6 °F 87% 29.53 in 6.2 mi WSW 5.8 mph - N/A   Partly Cloudy
1:55 AM 37.4 °F 32.1 °F 35.6 °F 93% 29.53 in 6.2 mi WSW 6.9 mph - N/A   Partly Cloudy
2:55 AM 37.4 °F 32.1 °F 35.6 °F 93% 29.53 in 6.2 mi WSW 6.9 mph - N/A   Clear
3:25 AM 37.4 °F 32.1 °F 33.8 °F 87% 29.53 in 6.2 mi WSW 6.9 mph - N/A   Partly Cloudy
3:55 AM 35.6 °F 29.9 °F 33.8 °F 93% 29.53 in 6.2 mi SW 6.9 mph - N/A   Partly Cloudy
4:00 AM 36 °F - 35 °F 92% 29.58 in 16 mi SW 6.7 mph - -   Clear
4:25 AM 35.6 °F 30.7 °F 33.8 °F 93% 29.53 in 6.2 mi WSW 5.8 mph - N/A   Partly Cloudy
4:55 AM 35.6 °F 28.0 °F 35.6 °F 100% 29.53 in 6.2 mi SSW 10.4 mph - N/A   Partly Cloudy
5:25 AM 35.6 °F 29.9 °F 35.6 °F 100% 29.53 in 6.2 mi South 6.9 mph - N/A   Partly Cloudy
5:55 AM 35.6 °F 29.2 °F 35.6 °F 100% 29.53 in 6.2 mi SSW 8.1 mph - N/A   Scattered Clouds
6:21 AM 37.4 °F 30.3 °F 35.6 °F 93% 29.53 in 6.2 mi South 10.4 mph - N/A   Scattered Clouds
6:25 AM 37.4 °F 30.3 °F 35.6 °F 93% 29.53 in 6.2 mi South 10.4 mph - N/A   Scattered Clouds
6:55 AM 35.6 °F 28.0 °F 33.8 °F 93% 29.53 in 6.2 mi South 10.4 mph - N/A   Scattered Clouds
7:00 AM 36 °F - 35 °F 92% 29.58 in 16 mi South 8.9 mph - -   Partly Cloudy
7:25 AM 35.6 °F 29.2 °F 33.8 °F 93% 29.50 in 6.2 mi South 8.1 mph - N/A   Scattered Clouds
7:55 AM 35.6 °F 28.0 °F 33.8 °F 93% 29.50 in 6.2 mi South 10.4 mph - N/A   Mostly Cloudy
8:25 AM 35.6 °F 28.0 °F 35.6 °F 100% 29.50 in 6.2 mi South 10.4 mph - N/A   Mostly Cloudy
8:55 AM 37.4 °F 30.3 °F 35.6 °F 93% 29.50 in 6.2 mi South 10.4 mph - N/A   Mostly Cloudy
9:25 AM 37.4 °F 30.3 °F 35.6 °F 93% 29.50 in 6.2 mi South 10.4 mph - N/A   Mostly Cloudy
9:38 AM 37.4 °F 29.8 °F 35.6 °F 93% 29.47 in 6.2 mi South 11.5 mph - N/A   Mostly Cloudy
9:42 AM 37.4 °F 29.8 °F 35.6 °F 93% 29.47 in 6.2 mi South 11.5 mph - N/A   Mostly Cloudy
9:55 AM 39.2 °F 32.0 °F 35.6 °F 87% 29.47 in 6.2 mi South 11.5 mph - N/A   Mostly Cloudy
10:00 AM 39 °F - 36 °F 86% 29.53 in 12 mi South 11.2 mph - -   Partly Cloudy
10:16 AM 39.2 °F 32.0 °F 35.6 °F 87% 29.47 in 6.2 mi South 11.5 mph - N/A   Mostly Cloudy
10:25 AM 39.2 °F 31.6 °F 35.6 °F 87% 29.47 in 6.2 mi South 12.7 mph - N/A   Mostly Cloudy
10:55 AM 41.0 °F 33.5 °F 35.6 °F 81% 29.44 in 6.2 mi South 13.8 mph - N/A   Mostly Cloudy
11:25 AM 41.0 °F 33.1 °F 35.6 °F 81% 29.44 in 6.2 mi South 15.0 mph - N/A Rain Light Rain
11:55 AM 39.2 °F 30.8 °F 37.4 °F 93% 29.42 in 6.2 mi South 15.0 mph - N/A Rain Light Rain
12:25 PM 39.2 °F 30.2 °F 37.4 °F 93% 29.42 in 6.2 mi South 17.3 mph - N/A Rain Light Rain
12:46 PM 39.2 °F 31.2 °F 39.2 °F 100% 29.39 in 5.0 mi South 13.8 mph - N/A Rain Light Rain
12:55 PM 41.0 °F 33.9 °F 39.2 °F 93% 29.39 in 6.2 mi South 12.7 mph - N/A Rain Light Rain
1:00 PM 40 °F - 39 °F 95% 29.44 in 6 mi South 13.4 mph - - Rain Light Rain
1:03 PM 41.0 °F 33.5 °F 39.2 °F 93% 29.39 in 6.2 mi South 13.8 mph - N/A Rain Light Rain
1:25 PM 41.0 °F 33.5 °F 39.2 °F 93% 29.39 in 6.2 mi South 13.8 mph - N/A Rain Light Rain
1:55 PM 41.0 °F 33.5 °F 39.2 °F 93% 29.36 in 6.2 mi South 13.8 mph - N/A Rain Light Rain
2:25 PM 41.0 °F 33.5 °F 41.0 °F 100% 29.36 in 6.2 mi South 13.8 mph - N/A Rain Light Rain
2:55 PM 41.0 °F 33.5 °F 41.0 °F 100% 29.33 in 6.2 mi South 13.8 mph - N/A Rain Light Rain
3:03 PM 41.0 °F 33.5 °F 41.0 °F 100% 29.33 in 6.2 mi South 13.8 mph - N/A Rain Light Rain
3:06 PM 42.8 °F 35.4 °F 41.0 °F 93% 29.33 in 6.2 mi South 15.0 mph - N/A Rain Light Rain
3:25 PM 42.8 °F 35.8 °F 41.0 °F 93% 29.33 in 6.2 mi South 13.8 mph - N/A Rain Light Rain
3:55 PM 42.8 °F 36.2 °F 41.0 °F 93% 29.33 in 6.2 mi South 12.7 mph - N/A Rain Light Rain
4:00 PM 42 °F - 42 °F 99% 29.35 in 6 mi South 13.4 mph - - Rain Light Rain
4:25 PM 42.8 °F 35.4 °F 42.8 °F 100% 29.30 in 6.2 mi SSW 15.0 mph 27.6 mph N/A Rain Light Rain
4:55 PM 42.8 °F 35.4 °F 42.8 °F 100% 29.30 in 3.1 mi SSW 15.0 mph - N/A Rain Rain
5:25 PM 44.6 °F 37.8 °F 44.6 °F 100% 29.30 in 6.2 mi SSW 15.0 mph - N/A   Mostly Cloudy
5:51 PM 46.4 °F 40.4 °F 44.6 °F 93% 29.30 in 6.2 mi WSW 13.8 mph - N/A   Mostly Cloudy
5:55 PM 46.4 °F 39.8 °F 44.6 °F 93% 29.30 in 6.2 mi WSW 16.1 mph - N/A   Mostly Cloudy
6:13 PM 48.2 °F - 44.6 °F 87% 29.33 in 6.2 mi West 19.6 mph - N/A   Mostly Cloudy
6:25 PM 48.2 °F - 44.6 °F 87% 29.33 in 6.2 mi West 19.6 mph - N/A   Mostly Cloudy
6:55 PM 48.2 °F - 44.6 °F 87% 29.33 in 6.2 mi West 19.6 mph - N/A   Mostly Cloudy
7:00 PM 47 °F - 45 °F 91% 29.37 in 19 mi West 17.9 mph - -   Partly Cloudy
7:14 PM 46.4 °F 39.2 °F 44.6 °F 93% 29.36 in 6.2 mi West 18.4 mph - N/A   Scattered Clouds
7:25 PM 46.4 °F 39.8 °F 44.6 °F 93% 29.36 in 6.2 mi West 16.1 mph - N/A   Scattered Clouds
7:40 PM 48.2 °F - 44.6 °F 87% 29.39 in 6.2 mi West 17.3 mph - N/A   Scattered Clouds
7:54 PM 46.4 °F 39.2 °F 44.6 °F 93% 29.39 in 6.2 mi West 18.4 mph - N/A   Mostly Cloudy
7:55 PM 46.4 °F 39.2 °F 44.6 °F 93% 29.39 in 6.2 mi West 18.4 mph - N/A   Mostly Cloudy
8:25 PM 46.4 °F 39.0 °F 44.6 °F 93% 29.39 in 6.2 mi West 19.6 mph - N/A   Mostly Cloudy
8:50 PM 46.4 °F 39.2 °F 42.8 °F 87% 29.42 in 6.2 mi West 18.4 mph - N/A   Mostly Cloudy
8:55 PM 46.4 °F 39.5 °F 42.8 °F 87% 29.42 in 6.2 mi West 17.3 mph - N/A   Mostly Cloudy
9:25 PM 46.4 °F 39.2 °F 44.6 °F 93% 29.44 in 6.2 mi West 18.4 mph - N/A   Mostly Cloudy
9:55 PM 46.4 °F 39.2 °F 41.0 °F 81% 29.44 in 6.2 mi West 18.4 mph - N/A   Mostly Cloudy
10:00 PM 46 °F - 40 °F 74% 29.49 in 19 mi West 17.9 mph - -   Partly Cloudy
10:25 PM 44.6 °F 36.9 °F 39.2 °F 81% 29.47 in 6.2 mi West 18.4 mph - N/A   Mostly Cloudy
10:55 PM 44.6 °F 38.4 °F 41.0 °F 87% 29.47 in 6.2 mi West 12.7 mph - N/A   Mostly Cloudy
11:25 PM 46.4 °F 41.1 °F 41.0 °F 81% 29.47 in 6.2 mi West 11.5 mph - N/A   Mostly Cloudy
11:55 PM 46.4 °F 40.7 °F 41.0 °F 81% 29.50 in 6.2 mi WSW 12.7 mph - N/A   Mostly Cloudy